Location: Kershaw
(34.5481°N, 80.5823°W)
Time: 15:39:53
(UTC+00:00)

Courier 1B Rocket - Pass Details

Date: 29 September 2022
Orbit: 920 x 1202 km, 28.2° (Epoch: 08 December)

Event Time Altitude Azimuth Distance (km) Brightness Sun altitude
Rises 05:43:23 0° 267° (W) 3,547 - -57.1°
Reaches altitude 10° 05:46:09 10° 259° (WSW) 2,609 - -56.9°
Maximum altitude 05:51:47 36° 194° (SSW) 1,445 - -56.6°
Drops below altitude 10° 05:57:35 10° 130° (SE) 2,697 - -56.2°
Sets 06:00:31 0° 122° (ESE) 3,683 - -56.0°
